| time (UTC) | temp C | wind direction | speed KPH | gust KPH | rain 1hr cm | rain 24hr cm | rain mn cm | humidity % | barometer mb |
| 20260505072921 | 17 | 137 | 8.0 | 11.3 | 0.00 | 0.00 | 0.00 | 65 | 1008.0 |
| 20260505072417 | 18 | 202 | 6.4 | 8.0 | 0.00 | 0.00 | 0.00 | 64 | 1007.9 |
| 20260505071914 | 17 | 155 | 12.9 | 16.1 | 0.00 | 0.00 | 0.00 | 64 | 1008.1 |
| 20260505071410 | 18 | 262 | 8.0 | 11.3 | 0.00 | 0.00 | 0.00 | 64 | 1008.2 |
| 20260505070908 | 18 | 248 | 3.2 | 4.8 | 0.00 | 0.00 | 0.00 | 64 | 1008.0 |
| 20260505070404 | 18 | 178 | 14.5 | 17.7 | 0.00 | 0.00 | 0.00 | 64 | 1008.1 |
| 20260505065900 | 18 | 190 | 6.4 | 8.0 | 0.00 | 0.00 | 0.00 | 64 | 1008.2 |
| 20260505065357 | 18 | 153 | 8.0 | 11.3 | 0.00 | 0.00 | 0.00 | 64 | 1008.1 |
| 20260505064854 | 18 | 194 | 6.4 | 8.0 | 0.00 | 0.00 | 0.00 | 64 | 1008.2 |
| 20260505064351 | 18 | 194 | 12.9 | 14.5 | 0.00 | 0.00 | 0.00 | 64 | 1008.4 |
| 20260505063850 | 17 | 222 | 4.8 | 8.0 | 0.00 | 0.00 | 0.00 | 64 | 1008.2 |
| 20260505063345 | 17 | 258 | 8.0 | 11.3 | 0.00 | 0.00 | 0.00 | 65 | 1008.2 |
| 20260505062842 | 17 | 193 | 4.8 | 8.0 | 0.00 | 0.00 | 0.00 | 66 | 1008.4 |
| 20260505062339 | 18 | 204 | 8.0 | 12.9 | 0.00 | 0.00 | 0.00 | 66 | 1008.1 |
| 20260505061836 | 17 | 239 | 9.7 | 11.3 | 0.00 | 0.00 | 0.00 | 66 | 1008.1 |
| 20260505061334 | 17 | 234 | 8.0 | 9.7 | 0.00 | 0.00 | 0.00 | 66 | 1008.2 |
| 20260505060831 | 17 | 252 | 4.8 | 9.7 | 0.00 | 0.00 | 0.00 | 67 | 1008.2 |
| 20260505060328 | 17 | 214 | 6.4 | 8.0 | 0.00 | 0.00 | 0.00 | 66 | 1008.0 |
| 20260505055824 | 17 | 235 | 8.0 | 11.3 | 0.00 | 0.00 | 0.00 | 67 | 1007.8 |
| 20260505055320 | 17 | 201 | 6.4 | 9.7 | 0.00 | 0.00 | 0.00 | 66 | 1007.9 |
| 20260505054817 | 17 | 212 | 4.8 | 4.8 | 0.00 | 0.00 | 0.00 | 68 | 1007.9 |
| 20260505054315 | 17 | 245 | 3.2 | 4.8 | 0.00 | 0.00 | 0.00 | 67 | 1007.9 |
| 20260505053813 | 17 | 172 | 8.0 | 11.3 | 0.00 | 0.00 | 0.00 | 67 | 1007.8 |
| 20260505053309 | 17 | 142 | 8.0 | 11.3 | 0.00 | 0.00 | 0.00 | 67 | 1007.9 |
| 20260505052806 | 18 | 341 | 0.0 | 1.6 | 0.00 | 0.00 | 0.00 | 66 | 1007.8 |
| 20260505052304 | 18 | 194 | 4.8 | 4.8 | 0.00 | 0.00 | 0.00 | 67 | 1008.0 |
| 20260505051800 | 18 | 257 | 8.0 | 9.7 | 0.00 | 0.00 | 0.00 | 67 | 1007.9 |
| 20260505051258 | 18 | 226 | 4.8 | 8.0 | 0.00 | 0.00 | 0.00 | 67 | 1007.9 |
| 20260505050755 | 18 | 150 | 4.8 | 4.8 | 0.00 | 0.00 | 0.00 | 67 | 1008.1 |
| 20260505050254 | 17 | 204 | 8.0 | 9.7 | 0.00 | 0.00 | 0.00 | 68 | 1008.2 |
| 20260505041723 | 18 | 96 | 3.2 | 3.2 | 0.00 | 0.00 | 0.00 | 66 | 1008.5 |
| 20260505041220 | 18 | 211 | 6.4 | 9.7 | 0.00 | 0.00 | 0.00 | 67 | 1008.4 |
| 20260505040718 | 18 | 190 | 6.4 | 8.0 | 0.00 | 0.00 | 0.00 | 67 | 1008.2 |
| 20260505040215 | 18 | 249 | 4.8 | 4.8 | 0.00 | 0.00 | 0.00 | 67 | 1008.4 |
| 20260505035712 | 18 | 224 | 4.8 | 8.0 | 0.00 | 0.00 | 0.00 | 67 | 1008.1 |
| 20260505035208 | 18 | 229 | 4.8 | 4.8 | 0.00 | 0.00 | 0.00 | 68 | 1008.4 |
| 20260505034705 | 18 | 181 | 6.4 | 8.0 | 0.00 | 0.00 | 0.00 | 68 | 1008.2 |
| 20260505034202 | 18 | 210 | 6.4 | 8.0 | 0.00 | 0.00 | 0.00 | 68 | 1008.1 |
| 20260505033658 | 18 | 75 | 4.8 | 4.8 | 0.00 | 0.00 | 0.00 | 67 | 1008.6 |
| 20260505033156 | 18 | 207 | 6.4 | 9.7 | 0.00 | 0.00 | 0.00 | 68 | 1008.1 |
| 20260505032654 | 18 | 198 | 6.4 | 8.0 | 0.00 | 0.00 | 0.00 | 68 | 1008.4 |
| 20260505032155 | 18 | 58 | 3.2 | 3.2 | 0.00 | 0.00 | 0.00 | 68 | 1008.2 |
| 20260505031652 | 18 | 147 | 4.8 | 4.8 | 0.00 | 0.00 | 0.00 | 68 | 1008.0 |
| 20260505031148 | 18 | 146 | 4.8 | 4.8 | 0.00 | 0.00 | 0.00 | 67 | 1008.0 |
| 20260505030646 | 18 | 46 | 4.8 | 4.8 | 0.00 | 0.00 | 0.00 | 67 | 1007.9 |
| 20260505030141 | 18 | 219 | 6.4 | 8.0 | 0.00 | 0.00 | 0.00 | 66 | 1008.2 |
| 20260505025638 | 19 | 236 | 6.4 | 8.0 | 0.00 | 0.00 | 0.00 | 66 | 1007.9 |
| 20260505025136 | 19 | 152 | 6.4 | 8.0 | 0.00 | 0.00 | 0.00 | 66 | 1008.2 |
| 20260505024633 | 19 | 189 | 11.3 | 12.9 | 0.00 | 0.00 | 0.00 | 65 | 1007.8 |
| 20260505024130 | 19 | 259 | 4.8 | 8.0 | 0.00 | 0.00 | 0.00 | 65 | 1007.9 |
| 20260505023628 | 19 | 273 | 6.4 | 8.0 | 0.00 | 0.00 | 0.00 | 65 | 1007.9 |
| 20260505023125 | 19 | 333 | 1.6 | 1.6 | 0.00 | 0.00 | 0.00 | 65 | 1007.8 |
| 20260505022623 | 19 | 22 | 1.6 | 3.2 | 0.00 | 0.00 | 0.00 | 65 | 1007.7 |
| 20260505022119 | 19 | 8 | 0.0 | 0.0 | 0.00 | 0.00 | 0.00 | 65 | 1007.5 |
| 20260505021616 | 19 | 18 | 1.6 | 1.6 | 0.00 | 0.00 | 0.00 | 64 | 1007.5 |
| 20260505021113 | 19 | 25 | 1.6 | 1.6 | 0.00 | 0.00 | 0.00 | 65 | 1007.4 |
| 20260505020608 | 19 | 167 | 6.4 | 8.0 | 0.00 | 0.00 | 0.00 | 64 | 1007.4 |
| 20260505020104 | 19 | 138 | 6.4 | 8.0 | 0.00 | 0.00 | 0.00 | 64 | 1007.1 |
| 20260505015602 | 19 | 175 | 4.8 | 8.0 | 0.00 | 0.00 | 0.00 | 64 | 1007.2 |
| 20260505015058 | 19 | 8 | 3.2 | 4.8 | 0.00 | 0.00 | 0.00 | 64 | 1007.0 |
| 20260505014555 | 19 | 89 | 4.8 | 8.0 | 0.00 | 0.00 | 0.00 | 63 | 1007.2 |
| 20260505014052 | 20 | 143 | 3.2 | 3.2 | 0.00 | 0.00 | 0.00 | 63 | 1007.0 |
| 20260505013549 | 20 | 14 | 1.6 | 1.6 | 0.00 | 0.00 | 0.00 | 64 | 1006.9 |
| 20260505013047 | 20 | 106 | 3.2 | 3.2 | 0.00 | 0.00 | 0.00 | 62 | 1007.0 |
| 20260505012545 | 20 | 12 | 3.2 | 3.2 | 0.00 | 0.00 | 0.00 | 61 | 1006.9 |
| 20260505012042 | 21 | 226 | 4.8 | 8.0 | 0.00 | 0.00 | 0.00 | 59 | 1007.0 |
| 20260505011537 | 21 | 102 | 1.6 | 3.2 | 0.00 | 0.00 | 0.00 | 59 | 1007.0 |
| 20260505011035 | 21 | 178 | 6.4 | 8.0 | 0.00 | 0.00 | 0.00 | 58 | 1006.8 |
| 20260505010530 | 21 | 88 | 4.8 | 8.0 | 0.00 | 0.00 | 0.00 | 59 | 1007.0 |
| 20260505010027 | 21 | 135 | 4.8 | 4.8 | 0.00 | 0.00 | 0.00 | 59 | 1006.7 |
| 20260505005523 | 21 | 191 | 3.2 | 3.2 | 0.00 | 0.00 | 0.00 | 58 | 1006.8 |
| 20260505005021 | 21 | 123 | 3.2 | 3.2 | 0.00 | 0.00 | 0.00 | 58 | 1006.6 |
| 20260505004517 | 21 | 186 | 4.8 | 4.8 | 0.00 | 0.00 | 0.00 | 57 | 1006.8 |
| 20260505004014 | 21 | 154 | 6.4 | 8.0 | 0.00 | 0.00 | 0.00 | 58 | 1006.8 |
| 20260505003511 | 21 | 169 | 6.4 | 8.0 | 0.00 | 0.00 | 0.00 | 57 | 1006.9 |
| 20260505003009 | 21 | 199 | 4.8 | 4.8 | 0.00 | 0.00 | 0.00 | 57 | 1007.0 |
| 20260505002503 | 21 | 165 | 6.4 | 8.0 | 0.00 | 0.00 | 0.00 | 56 | 1007.2 |
| 20260505002002 | 22 | 198 | 6.4 | 9.7 | 0.00 | 0.00 | 0.00 | 56 | 1007.0 |
| 20260505001459 | 22 | 290 | 4.8 | 8.0 | 0.00 | 0.00 | 0.00 | 56 | 1007.0 |
| 20260505000956 | 22 | 228 | 6.4 | 8.0 | 0.00 | 0.00 | 0.00 | 55 | 1007.3 |
| 20260505000454 | 22 | 146 | 4.8 | 8.0 | 0.00 | 0.00 | 0.00 | 54 | 1007.1 |
| 20260504235951 | 22 | 207 | 4.8 | 8.0 | 0.00 | 0.00 | 0.00 | 54 | 1007.0 |
| 20260504235448 | 22 | 139 | 8.0 | 11.3 | 0.00 | 0.00 | 0.00 | 54 | 1007.2 |
| 20260504234944 | 22 | 210 | 6.4 | 8.0 | 0.00 | 0.00 | 0.00 | 53 | 1007.2 |
| 20260504234442 | 22 | 238 | 8.0 | 8.0 | 0.00 | 0.00 | 0.00 | 52 | 1007.3 |
| 20260504233938 | 22 | 213 | 9.7 | 12.9 | 0.00 | 0.00 | 0.00 | 52 | 1007.6 |
| 20260504233434 | 22 | 211 | 3.2 | 3.2 | 0.00 | 0.00 | 0.00 | 52 | 1007.7 |
| 20260504232931 | 23 | 251 | 1.6 | 3.2 | 0.00 | 0.00 | 0.00 | 52 | 1007.5 |
| 20260504232428 | 23 | 353 | 1.6 | 3.2 | 0.00 | 0.00 | 0.00 | 51 | 1007.5 |
| 20260504231925 | 23 | 345 | 3.2 | 3.2 | 0.00 | 0.00 | 0.00 | 51 | 1007.6 |
| 20260504231421 | 23 | 120 | 3.2 | 4.8 | 0.00 | 0.00 | 0.00 | 52 | 1007.6 |
| 20260504230918 | 23 | 185 | 8.0 | 9.7 | 0.00 | 0.00 | 0.00 | 51 | 1007.7 |
| 20260504230415 | 23 | 227 | 14.5 | 16.1 | 0.00 | 0.00 | 0.00 | 50 | 1007.7 |
| 20260504225914 | 23 | 213 | 8.0 | 9.7 | 0.00 | 0.00 | 0.00 | 51 | 1007.7 |
| 20260504225410 | 24 | 117 | 8.0 | 9.7 | 0.00 | 0.00 | 0.00 | 50 | 1007.9 |
| 20260504224908 | 23 | 228 | 8.0 | 9.7 | 0.00 | 0.00 | 0.00 | 49 | 1007.7 |
| 20260504224404 | 23 | 223 | 12.9 | 17.7 | 0.00 | 0.00 | 0.00 | 47 | 1007.8 |
| 20260504223901 | 23 | 208 | 6.4 | 8.0 | 0.00 | 0.00 | 0.00 | 48 | 1007.8 |
| 20260504223356 | 24 | 165 | 12.9 | 14.5 | 0.00 | 0.00 | 0.00 | 46 | 1007.9 |
| 20260504222853 | 24 | 315 | 4.8 | 8.0 | 0.00 | 0.00 | 0.00 | 47 | 1007.8 |
| 20260504222350 | 24 | 165 | 12.9 | 16.1 | 0.00 | 0.00 | 0.00 | 47 | 1007.9 |
| 20260504221848 | 24 | 270 | 4.8 | 4.8 | 0.00 | 0.00 | 0.00 | 46 | 1007.9 |
| 20260504221345 | 25 | 157 | 4.8 | 8.0 | 0.00 | 0.00 | 0.00 | 47 | 1008.0 |
| 20260504220842 | 25 | 221 | 19.3 | 27.4 | 0.00 | 0.00 | 0.00 | 45 | 1008.1 |
| 20260504220338 | 24 | 223 | 4.8 | 8.0 | 0.00 | 0.00 | 0.00 | 47 | 1008.0 |
| 20260504215836 | 25 | 207 | 11.3 | 14.5 | 0.00 | 0.00 | 0.00 | 50 | 1008.0 |
| 20260504215332 | 24 | 156 | 14.5 | 20.9 | 0.00 | 0.00 | 0.00 | 51 | 1007.9 |
| 20260504214828 | 24 | 177 | 11.3 | 16.1 | 0.00 | 0.00 | 0.00 | 52 | 1008.0 |
| 20260504214325 | 24 | 178 | 6.4 | 11.3 | 0.00 | 0.00 | 0.00 | 51 | 1007.9 |
| 20260504213822 | 25 | 252 | 8.0 | 14.5 | 0.00 | 0.00 | 0.00 | 50 | 1007.9 |
| 20260504213318 | 25 | 152 | 9.7 | 11.3 | 0.00 | 0.00 | 0.00 | 49 | 1008.1 |
| 20260504212815 | 24 | 280 | 6.4 | 9.7 | 0.00 | 0.00 | 0.00 | 50 | 1008.1 |
| 20260504212311 | 24 | 291 | 4.8 | 4.8 | 0.00 | 0.00 | 0.00 | 54 | 1008.1 |
| 20260504211809 | 25 | 334 | 1.6 | 1.6 | 0.00 | 0.00 | 0.00 | 50 | 1008.5 |
| 20260504211305 | 25 | 69 | 4.8 | 4.8 | 0.00 | 0.00 | 0.00 | 51 | 1008.4 |
| 20260504210803 | 24 | 48 | 4.8 | 8.0 | 0.00 | 0.00 | 0.00 | 52 | 1008.4 |
| 20260504210300 | 25 | 350 | 8.0 | 11.3 | 0.00 | 0.00 | 0.00 | 52 | 1008.2 |
| 20260504205757 | 25 | 302 | 1.6 | 1.6 | 0.00 | 0.00 | 0.00 | 50 | 1008.6 |
| 20260504205254 | 25 | 327 | 3.2 | 3.2 | 0.00 | 0.00 | 0.00 | 49 | 1008.5 |
| 20260504204752 | 25 | 306 | 3.2 | 3.2 | 0.00 | 0.00 | 0.00 | 49 | 1008.5 |
| 20260504204250 | 25 | 254 | 8.0 | 11.3 | 0.00 | 0.00 | 0.00 | 50 | 1008.8 |
| 20260504203750 | 25 | 220 | 6.4 | 9.7 | 0.00 | 0.00 | 0.00 | 48 | 1008.8 |
| 20260504203246 | 25 | 320 | 1.6 | 3.2 | 0.00 | 0.00 | 0.00 | 52 | 1008.8 |
| 20260504202741 | 25 | 149 | 3.2 | 4.8 | 0.00 | 0.00 | 0.00 | 51 | 1008.9 |
| 20260504202239 | 23 | 276 | 3.2 | 4.8 | 0.00 | 0.00 | 0.00 | 54 | 1009.1 |
| 20260504201736 | 23 | 246 | 1.6 | 3.2 | 0.00 | 0.00 | 0.00 | 54 | 1009.0 |
| 20260504201233 | 23 | 152 | 1.6 | 3.2 | 0.00 | 0.00 | 0.00 | 55 | 1009.1 |
| 20260504200730 | 23 | 309 | 0.0 | 1.6 | 0.00 | 0.00 | 0.00 | 57 | 1009.5 |
| 20260504200226 | 23 | 202 | 4.8 | 4.8 | 0.00 | 0.00 | 0.00 | 58 | 1009.3 |
| 20260504195723 | 23 | 198 | 8.0 | 9.7 | 0.00 | 0.00 | 0.00 | 56 | 1009.1 |
| 20260504195219 | 24 | 165 | 11.3 | 12.9 | 0.00 | 0.00 | 0.00 | 53 | 1009.4 |
| 20260504194716 | 23 | 269 | 4.8 | 4.8 | 0.00 | 0.00 | 0.00 | 57 | 1009.4 |
| 20260504194212 | 23 | 218 | 6.4 | 8.0 | 0.00 | 0.00 | 0.00 | 55 | 1009.6 |
| 20260504193708 | 23 | 167 | 8.0 | 9.7 | 0.00 | 0.00 | 0.00 | 55 | 1009.6 |
| 20260504193206 | 24 | 282 | 4.8 | 4.8 | 0.00 | 0.00 | 0.00 | 52 | 1009.9 |
| 20260504192704 | 25 | 227 | 9.7 | 12.9 | 0.00 | 0.00 | 0.00 | 53 | 1010.0 |
| 20260504192202 | 23 | 259 | 6.4 | 9.7 | 0.00 | 0.00 | 0.00 | 56 | 1010.0 |
| 20260504191700 | 24 | 252 | 6.4 | 11.3 | 0.00 | 0.00 | 0.00 | 53 | 1009.9 |
| 20260504191156 | 23 | 317 | 8.0 | 8.0 | 0.00 | 0.00 | 0.00 | 56 | 1010.0 |
| 20260504190652 | 23 | 3 | 1.6 | 1.6 | 0.00 | 0.00 | 0.00 | 59 | 1010.1 |
| 20260504190148 | 23 | 204 | 8.0 | 12.9 | 0.00 | 0.00 | 0.00 | 56 | 1010.0 |
| 20260504185645 | 22 | 4 | 1.6 | 3.2 | 0.00 | 0.00 | 0.00 | 60 | 1010.1 |
| 20260504185136 | 22 | 238 | 3.2 | 3.2 | 0.00 | 0.00 | 0.00 | 60 | 1010.3 |
| 20260504184632 | 22 | 357 | 8.0 | 12.9 | 0.00 | 0.00 | 0.00 | 58 | 1010.2 |
| 20260504184127 | 22 | 324 | 3.2 | 4.8 | 0.00 | 0.00 | 0.00 | 61 | 1010.4 |
| 20260504183624 | 22 | 16 | 4.8 | 4.8 | 0.00 | 0.00 | 0.00 | 61 | 1010.3 |
| 20260504183122 | 22 | 209 | 8.0 | 11.3 | 0.00 | 0.00 | 0.00 | 60 | 1010.3 |
| 20260504182619 | 21 | 129 | 6.4 | 8.0 | 0.00 | 0.00 | 0.00 | 60 | 1010.2 |
| 20260504182117 | 22 | 264 | 4.8 | 8.0 | 0.00 | 0.00 | 0.00 | 62 | 1009.9 |
| 20260504181614 | 22 | 341 | 6.4 | 8.0 | 0.00 | 0.00 | 0.00 | 59 | 1010.1 |
| 20260504181111 | 22 | 340 | 1.6 | 1.6 | 0.00 | 0.00 | 0.00 | 59 | 1010.0 |
| 20260504180610 | 21 | 266 | 3.2 | 4.8 | 0.00 | 0.00 | 0.00 | 62 | 1009.9 |
| 20260504180109 | 21 | 205 | 11.3 | 14.5 | 0.00 | 0.00 | 0.00 | 62 | 1010.0 |
| 20260504175606 | 21 | 276 | 12.9 | 16.1 | 0.00 | 0.00 | 0.00 | 63 | 1010.2 |
| 20260504175102 | 20 | 139 | 8.0 | 11.3 | 0.00 | 0.00 | 0.00 | 63 | 1010.2 |
| 20260504174600 | 20 | 344 | 4.8 | 8.0 | 0.00 | 0.00 | 0.00 | 65 | 1010.2 |
| 20260504174057 | 20 | 188 | 11.3 | 12.9 | 0.00 | 0.00 | 0.00 | 65 | 1010.2 |
| 20260504173554 | 19 | 154 | 8.0 | 11.3 | 0.00 | 0.00 | 0.00 | 65 | 1010.5 |
| 20260504173051 | 19 | 201 | 14.5 | 20.9 | 0.00 | 0.00 | 0.00 | 65 | 1010.3 |
| 20260504172547 | 19 | 185 | 12.9 | 17.7 | 0.00 | 0.00 | 0.00 | 65 | 1010.2 |
| 20260504172044 | 19 | 228 | 8.0 | 9.7 | 0.00 | 0.00 | 0.00 | 65 | 1010.1 |
| 20260504171541 | 18 | 204 | 8.0 | 11.3 | 0.00 | 0.00 | 0.00 | 65 | 1010.2 |
| 20260504171038 | 18 | 198 | 6.4 | 8.0 | 0.00 | 0.00 | 0.00 | 67 | 1010.2 |
| 20260504170533 | 18 | 172 | 6.4 | 9.7 | 0.00 | 0.00 | 0.00 | 67 | 1010.1 |
| 20260504150918 | 18 | 266 | 3.2 | 3.2 | 0.00 | 0.00 | 0.00 | 67 | 1010.6 |
| 20260504150414 | 17 | 162 | 6.4 | 8.0 | 0.00 | 0.00 | 0.00 | 67 | 1010.8 |
| 20260504140841 | 16 | 184 | 8.0 | 9.7 | 0.00 | 0.00 | 0.00 | 70 | 1010.7 |
| 20260504140336 | 15 | 238 | 8.0 | 11.3 | 0.00 | 0.00 | 0.00 | 70 | 1010.8 |
| 20260504130805 | 13 | 153 | 9.7 | 12.9 | 0.00 | 0.00 | 0.00 | 74 | 1011.7 |
| 20260504130301 | 13 | 185 | 11.3 | 12.9 | 0.00 | 0.00 | 0.00 | 74 | 1011.6 |
| 20260504120225 | 12 | 238 | 8.0 | 9.7 | 0.00 | 0.00 | 0.00 | 73 | 1012.0 |
| 20260504110647 | 11 | 204 | 6.4 | 9.7 | 0.00 | 0.00 | 0.00 | 72 | 1011.4 |
| 20260504110144 | 11 | 196 | 3.2 | 3.2 | 0.00 | 0.00 | 0.00 | 74 | 1011.6 |
| 20260504100609 | 10 | 9 | 1.6 | 1.6 | 0.00 | 0.00 | 0.00 | 75 | 1011.8 |
| 20260504100107 | 10 | 7 | 1.6 | 3.2 | 0.00 | 0.00 | 0.00 | 75 | 1011.9 |
| 20260504082002 | 10 | 175 | 3.2 | 4.8 | 0.00 | 0.00 | 0.00 | 72 | 1012.3 |
| 20260504081500 | 9 | 55 | 4.8 | 4.8 | 0.00 | 0.00 | 0.00 | 72 | 1012.3 |
| 20260504080950 | 10 | 183 | 3.2 | 3.2 | 0.00 | 0.00 | 0.00 | 71 | 1012.6 |
| 20260504080447 | 10 | 94 | 3.2 | 3.2 | 0.00 | 0.00 | 0.00 | 69 | 1012.4 |